Back to catalog

STARLINK-35737

AliveCommunicationsVLEO
NORAD 66219·PAYLOAD·🇺🇸 United States

Launched Oct 28, 2025 from Vandenberg Space Force Base

Loading…

Next Passes (next 24 hours)

TLE

FreshSource: CelesTrak SupGP

Epoch: Sep 14, 2026, 20:49 UTC

1 66219C 25244P   26257.86784722 -.00010013  00000+0 -29595-3 0  2573
2 66219  53.1578  67.9276 0001129  83.7525 133.5118 15.34385065    18

Track STARLINK-35737 in real time with AllMySat

Download on the App Store